Location: Beekmeers
(50.8953°N, 3.6968°E)
Time: 16:58:51
(UTC+00:00)

H-2A R/B - Pass Details

Date: 14 August 2024
Orbit: 566 x 633 km, 98.4° (Epoch: 06 September)

Event Time Altitude Azimuth Distance (km) Brightness Sun altitude
Rises 23:11:49 0° 26° (NNE) 2,863 6.3 -24.6°
Reaches altitude 10° 23:14:25 10° 42° (NE) 1,968 5.1 -24.7°
Enters shadow 23:17:03 21° 79° (E) 1,396 3.8 -24.7°
